This demonstration page uses our WeatherBlox Daily Observations layout. Learn more.

Left ArrowRight Arrow

39.92423, -83.80882

Hourly Observations for January 2, 2019

Temp ( °F °C ) Dew Point ( °F °C ) Humidity (%) Winds ( mph kmh ) Pressure ( in mb ) Visibility ( mi km ) Precip ( " mm )
12:33 am 00:33 Cloudy 37 3 36 2 93 93 WNW 3 6 30.30 1026 10 16 0.00 0.00
12:56 am 00:56 Cloudy 37 2.8 36 2.2 96 96 W 3 6 30.28 1025 10 16 0.00 0.00
1:11 am 01:11 Cloudy 37 3 36 2 93 93 WNW 5 7 30.30 1026 10 16 N/A
1:36 am 01:36 Cloudy 36 2 36 2 100 100 NW 3 6 30.30 1026 10 16 N/A
1:56 am 01:56 Cloudy 36 2.2 36 2.2 100 100 NW 3 6 30.29 1026 10 16 N/A
2:56 am 02:56 Cloudy 36 2.2 36 2.2 100 100 N N/A 30.29 1026 10 16 N/A
3:27 am 03:27 Cloudy 36 2 36 2 100 100 N N/A 30.33 1027 10 16 N/A
3:41 am 03:41 Cloudy 36 2 36 2 100 100 E 3 6 30.30 1026 10 16 N/A
3:56 am 03:56 Cloudy 36 2.2 36 2.2 100 100 SE 3 6 30.28 1025 9 14 N/A
4:56 am 04:56 Cloudy 36 2.2 36 2.2 100 100 N N/A 30.26 1025 9 14 N/A
5:16 am 05:16 Cloudy 36 2 36 2 100 100 N N/A 30.27 1025 8 13 N/A
5:56 am 05:56 Cloudy 36 2.2 36 2.2 100 100 SE 3 6 30.24 1024 8 13 N/A
6:07 am 06:07 Cloudy with Mist and Fog 36 2 36 2 100 100 ESE 3 6 30.27 1025 6 10 N/A
6:16 am 06:16 Cloudy with Mist and Fog 36 2 36 2 100 100 ESE 5 7 30.27 1025 6 10 N/A
6:30 am 06:30 Cloudy with Mist and Fog 36 2 36 2 100 100 SE 6 9 30.27 1025 6 10 N/A
6:56 am 06:56 Cloudy with Mist and Fog 36 2.2 36 2.2 100 100 SE 6 9 30.24 1024 6 10 N/A
7:56 am 07:56 Cloudy 36 2.2 35 1.7 97 97 SE 6 9 30.24 1024 9 14 N/A
8:56 am 08:56 Cloudy 36 2.2 35 1.7 97 97 SE 5 7 30.26 1025 7 11 N/A
9:27 am 09:27 Cloudy 37 3 36 2 93 93 SSE 5 7 30.30 1026 8 13 N/A
9:47 am 09:47 Cloudy 37 3 36 2 93 93 SE 7 11 30.27 1025 8 13 N/A
9:56 am 09:56 Cloudy 37 2.8 35 1.7 93 93 SSE 6 9 30.26 1025 9 14 N/A
10:51 am 10:51 Cloudy 37 3 36 2 93 93 S 6 9 30.30 1026 9 14 N/A
10:56 am 10:56 Cloudy 38 3.3 36 2.2 93 93 SSW 5 7 30.26 1025 9 14 N/A
11:56 am 11:56 Cloudy with Mist and Fog 38 3.3 37 2.8 97 97 S 3 6 30.21 1023 4 6 N/A
12:56 pm 12:56 Cloudy 39 3.9 38 3.3 96 96 S 5 7 30.15 1021 7 11 N/A
1:56 pm 13:56 Cloudy 40 4.4 38 3.3 93 93 SW 6 9 30.11 1020 10 16 N/A
2:14 pm 14:14 Cloudy 39 4 37 3 93 93 S 7 11 30.09 1019 10 16 N/A
2:43 pm 14:43 Cloudy 39 4 37 3 93 93 SSW 8 13 30.09 1019 10 16 N/A
2:56 pm 14:56 Cloudy 40 4.4 38 3.3 93 93 SSW 9 15 30.08 1019 10 16 N/A
3:56 pm 15:56 Cloudy 40 4.4 37 2.8 89 89 SSW 10 17 30.06 1018 10 16 N/A
4:56 pm 16:56 Cloudy 40 4.4 37 2.8 89 89 SW 9 15 30.04 1017 10 16 N/A
5:56 pm 17:56 Cloudy 40 4.4 36 2.2 86 86 SW 15 24 30.02 1017 10 16 N/A
6:56 pm 18:56 Cloudy 39 3.9 36 2.2 89 89 SW 16 26 30.01 1016 10 16 N/A
7:56 pm 19:56 Cloudy 39 3.9 35 1.7 86 86 W 14 22 30.04 1017 10 16 N/A
8:56 pm 20:56 Cloudy 38 3.3 34 1.1 86 86 W 16 26 30.05 1018 10 16 N/A
10:56 pm 22:56 Cloudy 35 1.7 32 undefined 89 89 W 16 26 30.06 1018 10 16 N/A
11:56 pm 23:56 Cloudy 34 1.1 32 undefined 92 92 W 15 24 30.08 1019 10 16 N/A

Powered by AerisWeather